Huron, CA

11:23 PM PST on December 02, 2016 (GMT -0800)
Lemoore Naval Air Station

Weather History for KNLC - January, 2014

Change the Weather History Date:

Friday, January 10, 2014

  Actual Average Record
Temperature  
Mean Temperature 48 °F -  
Max Temperature 64 °F 52 °F 64 °F (2012)
Min Temperature 33 °F 37 °F 28 °F (2007)
Degree Days  
Heating Degree Days 16    
Moisture  
Dew Point 36 °F    
Average Humidity 65    
Maximum Humidity 78    
Minimum Humidity 48    
Precipitation  
Precipitation 0.00 in - - ()
Sea Level Pressure  
Sea Level Pressure 30.25 in    
Wind  
Wind Speed 5 mph (NW)    
Max Wind Speed 9 mph    
Max Gust Speed -    
Visibility 7 miles    
Events      
Averages and records for this station are not official NWS values.
T = Trace of Precipitation, MM = Missing Value Source: NWS Daily Summary

Daily Weather History Graph

Daily Weather History Graph

Search for Another Location

Airport or City:

Trip Planner

Search our weather history database for the weather conditions in past years. The results will help you decide how hot, cold, wet, or windy it might be!

Date:

Astronomy

Jan. 10, 2014 Rise Set
Actual Time 7:11 AM PST 5:03 PM PST
Civil Twilight 6:43 AM PST 5:31 PM PST
Nautical Twilight 6:11 AM PST 6:03 PM PST
Astronomical Twilight 5:40 AM PST 6:34 PM PST
Moon 1:08 PM PST (1/10) 2:26 AM PST (1/10)
Length of Visible Light 10h 48m
Length of Day
9h 52m
Waxing Gibbous, 76% of the Moon is Illuminated
Jan 10
Waxing Gibbous
Jan 15
Full
Jan 23
Last Quarter
Jan 30
New
Feb 6
First Quarter

Hourly Weather History & Observations

Time (PST) Temp. Windchill Dew Point Humidity Pressure Visibility Wind Dir Wind Speed Gust Speed Precip Events Conditions
12:56 AM 41.0 °F 37.1 °F 33.1 °F 73% 30.24 in 10.0 mi WSW 5.8 mph - N/A   Clear
1:56 AM 39.9 °F 35.1 °F 30.0 °F 68% 30.24 in 10.0 mi WSW 6.9 mph - N/A   Clear
2:56 AM 43.0 °F - 34.0 °F 71% 30.24 in 10.0 mi Calm Calm - N/A   Clear
3:56 AM 39.0 °F 35.7 °F 30.9 °F 73% 30.23 in 10.0 mi WNW 4.6 mph - N/A   Clear
4:56 AM 37.0 °F 34.5 °F 28.9 °F 73% 30.23 in 10.0 mi East 3.5 mph - N/A   Clear
5:56 AM 36.0 °F 33.3 °F 28.9 °F 76% 30.25 in 7.0 mi South 3.5 mph - N/A   Clear
6:56 AM 34.0 °F 29.8 °F 26.1 °F 73% 30.27 in 5.0 mi SSE 4.6 mph - N/A   Haze
7:14 AM 33.1 °F 30.0 °F 27.0 °F 78% 30.26 in 4.0 mi South 3.5 mph - N/A   Haze
7:56 AM 37.9 °F 33.5 °F 30.0 °F 73% 30.28 in 10.0 mi WSW 5.8 mph - N/A   Mostly Cloudy
8:56 AM 48.0 °F - 39.9 °F 74% 30.30 in 5.0 mi NW 9.2 mph - N/A   Haze
9:21 AM 46.0 °F 42.5 °F 39.0 °F 76% 30.31 in 5.0 mi NW 6.9 mph - N/A   Haze
9:56 AM 48.0 °F - 39.9 °F 74% 30.32 in 5.0 mi West 8.1 mph - N/A   Haze
10:56 AM 54.0 °F - 42.1 °F 64% 30.30 in 6.0 mi North 6.9 mph - N/A   Haze
11:56 AM 59.0 °F - 43.0 °F 55% 30.27 in 6.0 mi North 8.1 mph - N/A   Haze
12:56 PM 62.1 °F - 44.1 °F 52% 30.24 in 6.0 mi NNE 8.1 mph - N/A   Haze
1:56 PM 63.0 °F - 44.1 °F 50% 30.22 in 6.0 mi North 8.1 mph - N/A   Haze
2:56 PM 64.0 °F - 44.1 °F 48% 30.21 in 6.0 mi North 6.9 mph - N/A   Haze
3:56 PM 63.0 °F - 44.1 °F 50% 30.21 in 5.0 mi NNW 5.8 mph - N/A   Haze
4:56 PM 60.1 °F - 42.1 °F 51% 30.21 in 5.0 mi NNE 4.6 mph - N/A   Haze
5:56 PM 55.0 °F - 39.9 °F 57% 30.22 in 6.0 mi North 3.5 mph - N/A   Haze
6:56 PM 53.1 °F - 41.0 °F 64% 30.22 in 5.0 mi NNE 5.8 mph - N/A   Haze
7:56 PM 46.9 °F - 36.0 °F 66% 30.23 in 5.0 mi Calm Calm - N/A   Haze
8:56 PM 46.9 °F - 34.0 °F 61% 30.24 in 6.0 mi WSW 3.5 mph - N/A   Haze
9:56 PM 45.0 °F 40.6 °F 33.1 °F 63% 30.25 in 7.0 mi West 8.1 mph - N/A   Clear
10:56 PM 44.1 °F 40.8 °F 32.0 °F 63% 30.25 in 8.0 mi West 5.8 mph - N/A   Clear
11:56 PM 44.1 °F 41.5 °F 32.0 °F 63% 30.24 in 8.0 mi WNW 4.6 mph - N/A   Clear